TimeAKDT,TemperatureF,Dew PointF,Humidity,Sea Level PressureIn,VisibilityMPH,Wind Direction,Wind SpeedMPH,Gust SpeedMPH,PrecipitationIn,Events,Conditions,WindDirDegrees,DateUTC
12:16 AM,44.6,37.4,76,30.02,10.0,SSE,15.0,-,N/A,,Clear,160,2012-10-05 08:16:00
12:36 AM,44.6,37.4,76,30.03,10.0,SSE,12.7,-,N/A,,Clear,160,2012-10-05 08:36:00
12:56 AM,44.6,35.6,71,30.03,10.0,SSE,12.7,-,N/A,,Clear,150,2012-10-05 08:56:00
1:16 AM,44.6,35.6,71,30.03,10.0,SSE,12.7,-,N/A,,Clear,160,2012-10-05 09:16:00
1:36 AM,42.8,35.6,76,30.05,10.0,ESE,9.2,-,N/A,,Clear,110,2012-10-05 09:36:00
1:56 AM,42.8,37.4,81,30.05,10.0,SE,11.5,-,N/A,,Clear,130,2012-10-05 09:56:00
2:16 AM,42.8,37.4,81,30.05,10.0,SE,10.4,-,N/A,,Clear,140,2012-10-05 10:16:00
2:36 AM,42.8,37.4,81,30.04,10.0,SSE,11.5,-,N/A,,Clear,150,2012-10-05 10:36:00
2:56 AM,42.8,37.4,81,30.06,10.0,ESE,10.4,-,N/A,,Clear,120,2012-10-05 10:56:00
3:16 AM,42.8,35.6,76,30.06,10.0,SE,11.5,-,N/A,,Clear,140,2012-10-05 11:16:00
3:36 AM,42.8,37.4,81,30.06,10.0,SE,11.5,-,N/A,,Clear,130,2012-10-05 11:36:00
3:56 AM,42.8,37.4,81,30.06,10.0,SE,11.5,-,N/A,,Clear,130,2012-10-05 11:56:00
4:16 AM,42.8,37.4,81,30.06,10.0,SE,12.7,-,N/A,,Clear,130,2012-10-05 12:16:00
4:36 AM,42.8,37.4,81,30.06,10.0,SE,11.5,17.3,N/A,,Clear,140,2012-10-05 12:36:00
4:56 AM,42.8,37.4,81,30.06,10.0,SE,12.7,-,N/A,,Clear,130,2012-10-05 12:56:00
5:16 AM,42.8,37.4,81,30.06,10.0,SE,12.7,-,N/A,,Clear,140,2012-10-05 13:16:00
5:36 AM,42.8,37.4,81,30.06,10.0,SSE,12.7,-,N/A,,Clear,150,2012-10-05 13:36:00
5:56 AM,42.8,35.6,76,30.06,10.0,SSE,12.7,-,N/A,,Clear,150,2012-10-05 13:56:00
6:16 AM,44.6,35.6,71,30.05,10.0,SSE,12.7,-,N/A,,Clear,150,2012-10-05 14:16:00
6:36 AM,42.8,37.4,81,30.06,10.0,SSE,10.4,-,N/A,,Clear,150,2012-10-05 14:36:00
6:56 AM,42.8,37.4,81,30.06,10.0,SE,8.1,-,N/A,,Clear,140,2012-10-05 14:56:00
7:16 AM,44.6,39.2,81,30.06,10.0,SSE,10.4,-,N/A,,Clear,150,2012-10-05 15:16:00
7:36 AM,44.6,39.2,81,30.07,10.0,SSE,10.4,-,N/A,,Clear,150,2012-10-05 15:36:00
7:56 AM,44.6,39.2,81,30.07,10.0,SSE,10.4,-,N/A,,Clear,160,2012-10-05 15:56:00
8:16 AM,42.8,37.4,81,30.07,10.0,SE,9.2,-,N/A,,Clear,140,2012-10-05 16:16:00
8:36 AM,42.8,39.2,87,30.07,10.0,SSE,9.2,-,N/A,,Clear,150,2012-10-05 16:36:00
8:56 AM,42.8,39.2,87,30.07,10.0,SE,10.4,-,N/A,,Clear,140,2012-10-05 16:56:00
9:16 AM,42.8,39.2,87,30.07,10.0,SE,8.1,-,N/A,,Clear,140,2012-10-05 17:16:00
9:36 AM,42.8,39.2,87,30.07,10.0,SSE,10.4,-,N/A,,Clear,150,2012-10-05 17:36:00
9:56 AM,44.6,39.2,81,30.07,10.0,SSE,10.4,-,N/A,,Clear,150,2012-10-05 17:56:00
10:36 AM,44.6,39.2,81,30.07,10.0,SSE,9.2,-,N/A,,Clear,150,2012-10-05 18:36:00
10:56 AM,46.4,41.0,81,30.07,10.0,SSE,12.7,-,N/A,,Clear,150,2012-10-05 18:56:00
11:16 AM,46.4,41.0,81,30.07,10.0,SSE,12.7,-,N/A,,Clear,160,2012-10-05 19:16:00
11:36 AM,46.4,41.0,81,30.06,10.0,SSE,15.0,-,N/A,,Clear,160,2012-10-05 19:36:00
11:56 AM,46.4,42.8,87,30.07,10.0,SSE,11.5,16.1,N/A,,Clear,160,2012-10-05 19:56:00
12:16 PM,48.2,42.8,82,30.07,10.0,SSE,12.7,-,N/A,,Clear,160,2012-10-05 20:16:00
12:36 PM,48.2,42.8,82,30.07,10.0,South,13.8,17.3,N/A,,Clear,180,2012-10-05 20:36:00
12:56 PM,48.2,42.8,82,30.08,10.0,South,13.8,-,N/A,,Mostly Cloudy,170,2012-10-05 20:56:00
1:16 PM,50.0,42.8,76,30.08,10.0,South,13.8,18.4,N/A,,Mostly Cloudy,190,2012-10-05 21:16:00
1:36 PM,51.8,42.8,71,30.08,10.0,South,15.0,19.6,N/A,,Scattered Clouds,180,2012-10-05 21:36:00
1:56 PM,51.8,37.4,58,30.09,10.0,South,13.8,19.6,N/A,,Scattered Clouds,190,2012-10-05 21:56:00
2:16 PM,51.8,35.6,54,30.09,10.0,SSW,11.5,18.4,N/A,,Partly Cloudy,210,2012-10-05 22:16:00
2:36 PM,51.8,35.6,54,30.08,10.0,South,12.7,16.1,N/A,,Partly Cloudy,190,2012-10-05 22:36:00
2:56 PM,51.8,35.6,54,30.09,10.0,South,11.5,19.6,N/A,,Mostly Cloudy,190,2012-10-05 22:56:00
3:16 PM,51.8,33.8,50,30.08,10.0,SSW,15.0,-,N/A,,Mostly Cloudy,200,2012-10-05 23:16:00
3:36 PM,51.8,33.8,50,30.09,10.0,SSW,10.4,-,N/A,,Partly Cloudy,210,2012-10-05 23:36:00
3:56 PM,51.8,33.8,50,30.09,10.0,South,12.7,-,N/A,,Clear,190,2012-10-05 23:56:00
4:16 PM,51.8,32.0,47,30.08,10.0,South,9.2,-,N/A,,Clear,180,2012-10-06 00:16:00
4:36 PM,51.8,33.8,50,30.08,10.0,South,9.2,-,N/A,,Clear,190,2012-10-06 00:36:00
4:56 PM,51.8,33.8,50,30.08,10.0,South,10.4,-,N/A,,Clear,190,2012-10-06 00:56:00
5:16 PM,51.8,33.8,50,30.08,10.0,SSW,8.1,-,N/A,,Scattered Clouds,210,2012-10-06 01:16:00
5:36 PM,50.0,35.6,58,30.08,10.0,SW,8.1,-,N/A,,Scattered Clouds,220,2012-10-06 01:36:00
5:56 PM,50.0,35.6,58,30.08,10.0,SW,6.9,-,N/A,,Partly Cloudy,220,2012-10-06 01:56:00
6:16 PM,48.2,37.4,66,30.08,10.0,SSW,6.9,-,N/A,,Clear,210,2012-10-06 02:16:00
6:36 PM,48.2,37.4,66,30.08,10.0,SSW,5.8,-,N/A,,Clear,200,2012-10-06 02:36:00
6:56 PM,48.2,37.4,66,30.08,10.0,SSW,3.5,-,N/A,,Clear,200,2012-10-06 02:56:00
7:36 PM,46.4,37.4,71,30.09,10.0,South,4.6,-,N/A,,Clear,190,2012-10-06 03:36:00
7:56 PM,44.6,37.4,76,30.09,10.0,South,5.8,-,N/A,,Clear,190,2012-10-06 03:56:00
8:16 PM,44.6,37.4,76,30.10,10.0,South,4.6,-,N/A,,Clear,170,2012-10-06 04:16:00
8:36 PM,44.6,37.4,76,30.10,10.0,South,8.1,-,N/A,,Clear,180,2012-10-06 04:36:00
8:56 PM,44.6,35.6,71,30.10,10.0,South,8.1,-,N/A,,Clear,180,2012-10-06 04:56:00
9:16 PM,44.6,37.4,76,30.11,10.0,South,5.8,-,N/A,,Clear,170,2012-10-06 05:16:00
9:36 PM,42.8,37.4,81,30.11,10.0,SSE,6.9,-,N/A,,Clear,150,2012-10-06 05:36:00
9:56 PM,42.8,37.4,81,30.11,10.0,SSE,8.1,-,N/A,,Clear,150,2012-10-06 05:56:00
10:16 PM,42.8,35.6,76,30.11,10.0,SE,8.1,-,N/A,,Clear,140,2012-10-06 06:16:00
10:36 PM,41.0,35.6,81,30.12,10.0,SE,6.9,-,N/A,,Clear,140,2012-10-06 06:36:00
10:56 PM,41.0,35.6,81,30.12,10.0,SE,6.9,-,N/A,,Clear,140,2012-10-06 06:56:00
11:16 PM,39.2,33.8,81,30.12,10.0,SE,9.2,-,N/A,,Clear,130,2012-10-06 07:16:00
11:36 PM,39.2,35.6,87,30.12,10.0,SE,5.8,-,N/A,,Clear,140,2012-10-06 07:36:00
11:56 PM,37.4,33.8,87,30.13,10.0,SSE,8.1,-,N/A,,Clear,150,2012-10-06 07:56:00